Snowfall_Accumulation
0.0 0.0 0.0 0.0 0.0 0.0 0.0 0.0 0.0 0.0 0.0 0.0 0.0 0.0 0.0 0.0 0.0 0.0 0.0 0.0 0.0 0.0 0.0 0.0 0.0 0.0 0.0 0.0 0.0 0.0 0.0 0.0 0.0 0.0 0.0 0.0 0.0 0.0 0.0 0.0 0.0 0.0 0.0 0.0
0.0 0.0 0.0 0.0 0.0 0.0 0.0 0.0 0.0 0.0 0.0 0.0 0.0 0.0 0.0 0.0 0.0 0.0 0.0 0.0 0.0 0.0 0.0 0.0 0.0 0.0 0.0 0.0 0.0 0.0 0.0 0.0 0.0 0.0 0.0 0.0 0.0 0.0 0.0 0.0 0.0 0.0 0.0 0.0
0.0 0.0 0.0 0.0 0.0 0.0 0.0 0.0 0.0 0.0 0.0 0.0 0.0 0.0 0.0 0.0 0.0 0.0 0.0 0.0 0.0 0.0 0.0 0.0 0.0 0.0 0.0 0.0 0.0 0.0 0.0 0.0 0.0 0.0 0.0 0.0 0.0 0.0 0.0 0.0 0.0 0.0 0.0 0.0
0.0 0.0 0.0 0.0 0.0 0.0 0.0 0.0 0.0 0.0 0.0 0.0 0.0 0.0 0.0 0.0 0.0 0.0 0.0 0.0 0.0 0.0 0.0 0.0 0.0 0.0 0.0 0.0 0.0 0.0 0.0 0.0 0.0 0.0 0.0 0.0 0.0 0.0 0.0 0.0 0.0 0.0 0.0 0.0
0.0 0.0 0.0 0.0 0.0 0.0 0.0 0.0 0.0 0.0 0.0 0.0 0.0 0.0 0.0 0.0 0.0 0.0 0.0 0.0 0.0 0.0 0.0 0.0 0.0 0.0 0.0 0.0 0.0 0.0 0.0 0.0 0.0 0.0 0.0 0.0 0.0 0.0 0.0 0.0 0.0 0.0 0.0 0.0
0.0 0.0 0.0 0.0 0.0 0.0 0.0 0.0 0.0 0.0 0.0 0.5 0.0 0.0 0.0 0.0 0.0 0.0 0.0 0.0 0.0 0.0 0.0 0.0 0.0 0.0 0.0 0.0 0.0 0.0 0.0 0.0 0.0 0.0 0.0 0.0 0.0 0.0 0.0 0.0 0.0 0.0 0.0 0.0
0.0 0.0 0.0 0.0 0.0 0.0 0.0 0.0 0.6 1.3 3.1 1.9 0.0 0.2 0.0 0.0 0.0 0.0 0.0 0.0 0.0 0.0 0.0 0.0 0.0 0.0 0.0 0.0 0.0 0.0 0.0 0.0 0.0 0.0 0.0 0.0 0.0 0.0 0.0 0.0 0.0 0.0 0.0 0.0
0.0 0.0 0.0 0.0 0.0 0.0 0.0 0.0 1.3 4.3 3.4 1.6 0.7 0.7 0.1 0.0 0.0 0.0 0.0 0.0 0.0 0.0 0.0 0.0 0.0 0.0 0.0 0.0 0.0 0.0 0.0 0.0 0.0 0.0 0.0 0.0 0.0 0.0 0.0 0.0 0.0 0.0 0.0 0.0
0.0 0.0 0.0 0.0 0.0 0.0 0.0 0.0 0.0 1.4 6.1 5.2 0.0 0.0 0.0 0.0 0.0 0.0 0.0 0.0 0.0 0.0 0.0 0.0 0.0 0.0 0.0 0.0 0.0 0.0 0.0 0.0 0.0 0.0 0.0 0.0 0.0 0.0 0.0 0.0 0.0 0.0 0.0 0.0
0.0 0.1 0.0 0.0 0.0 0.0 0.0 0.0 0.6 0.6 6.9 5.1 0.0 0.0 0.0 0.0 0.0 0.0 0.0 0.0 0.0 0.0 0.0 0.0 0.0 0.0 0.0 0.0 0.0 0.0 0.0 0.0 0.0 0.0 0.0 0.0 0.0 0.0 0.0 0.0 0.0 0.0 0.0 0.0
0.0 0.0 0.0 0.0 0.0 0.0 0.0 0.0 0.0 0.0 0.9 4.4 3.6 0.5 0.0 0.0 0.0 0.0 0.0 0.0 0.0 0.0 0.0 0.0 0.0 0.0 0.0 0.0 0.0 0.0 0.0 0.0 0.0 0.0 0.0 0.0 0.0 0.0 0.0 0.0 0.0 0.0 0.0 0.0
0.0 0.0 1.0 0.0 0.0 0.0 0.0 0.0 0.0 1.6 1.4 1.0 3.1 1.2 0.0 0.0 0.0 0.0 0.0 0.0 0.0 0.0 0.0 0.0 0.0 0.0 0.0 0.0 0.0 0.0 0.0 0.0 0.0 0.0 0.0 0.0 0.0 0.0 0.0 0.0 0.0 0.0 0.0 0.0
0.0 0.5 2.8 0.6 0.0 0.0 0.0 0.0 0.0 0.0 1.3 2.5 7.4 1.9 0.0 0.0 0.0 0.0 0.0 0.0 0.0 0.0 0.0 0.0 0.0 0.0 0.0 0.0 0.0 0.0 0.0 0.0 0.0 0.0 0.0 0.0 0.0 0.0 0.0 0.0 0.0 0.0 0.0 0.0
nan 0.0 0.0 0.1 0.0 0.0 0.1 0.0 0.0 0.0 3.5 1.9 1.6 0.1 0.0 0.0 0.0 0.0 0.0 0.0 0.0 0.0 0.0 0.0 0.0 0.0 0.0 0.0 0.0 0.0 0.0 0.0 0.0 0.0 0.0 0.0 0.0 0.0 0.0 0.0 0.1 0.0 0.0 0.0
0.0 0.5 0.0 0.0 0.0 0.0 0.0 0.0 0.0 0.0 0.0 0.2 0.1 0.0 0.0 0.0 0.1 0.1 0.0 0.0 0.0 0.0 0.0 0.0 0.0 0.0 0.0 0.0 0.0 0.0 0.0 0.0 0.0 0.0 0.0 0.0 0.0 0.0 0.3 0.3 0.3 0.3 0.3 0.2
0.1 2.0 0.1 1.8 0.0 0.0 0.0 0.0 0.0 0.0 0.0 0.0 0.0 0.0 0.0 0.0 0.0 0.0 0.0 0.0 0.0 0.0 0.0 0.0 0.0 0.0 0.0 0.0 0.0 0.0 0.0 0.0 0.0 0.0 0.0 0.0 0.5 0.8 0.6 0.8 1.2 0.5 0.3 0.4
0.5 0.6 6.3 7.9 0.2 0.6 4.0 0.6 0.0 0.0 0.0 0.0 0.8 0.0 0.0 0.0 0.0 0.0 0.0 0.0 0.2 0.0 0.0 0.0 0.0 0.0 0.0 0.0 0.0 0.0 0.0 0.4 0.7 0.8 1.5 1.6 1.7 2.1 1.3 0.9 1.1 0.9 0.8 0.8
0.5 3.4 8.6 14.7 10.3 20.9 0.8 0.0 0.0 0.0 0.0 0.0 0.0 0.0 0.0 0.0 0.0 0.0 0.0 0.2 0.0 0.0 0.0 0.0 0.0 0.0 0.0 0.0 0.0 0.0 0.6 0.9 1.1 2.5 3.3 2.2 1.9 3.1 0.8 0.8 0.7 0.9 0.7 0.8
0.1 0.4 8.9 25.2 16.7 0.6 0.0 0.0 0.0 0.0 0.0 0.0 0.0 0.0 0.0 0.0 0.0 0.0 0.0 0.0 0.0 0.0 0.0 0.0 0.0 0.0 0.0 0.0 0.0 0.8 0.8 0.8 0.9 1.0 1.6 1.8 2.6 3.6 1.3 3.6 0.7 0.6 2.1 1.2
0.5 0.2 1.6 21.1 21.3 15.2 0.1 0.0 0.0 0.0 0.2 0.0 0.0 0.0 0.0 0.0 3.1 0.3 0.0 0.0 0.0 0.0 0.0 0.0 0.0 0.0 0.0 0.7 0.8 0.9 0.9 0.9 1.0 1.1 1.0 1.2 2.4 4.8 3.7 1.9 3.0 3.4 3.3 3.1
6.0 10.7 12.2 12.5 20.1 5.0 0.0 0.0 0.0 4.3 0.0 0.0 0.0 0.0 0.0 0.8 0.3 0.0 0.0 0.0 0.0 0.0 0.0 0.0 0.0 0.2 0.8 0.9 1.1 0.8 0.8 1.0 1.1 1.7 1.4 1.6 2.2 5.0 3.2 3.7 2.9 4.1 4.2 2.2
1.8 9.5 20.4 14.9 19.7 20.2 0.0 0.0 0.0 0.0 0.0 0.0 0.1 0.4 0.5 0.0 0.0 0.0 0.0 0.0 0.0 0.0 0.0 0.3 1.1 0.7 0.9 1.3 1.6 1.0 0.9 0.9 1.3 1.6 1.8 3.2 5.1 5.1 4.9 8.1 4.7 6.2 5.5 5.3
4.9 0.4 3.1 0.7 1.6 0.0 0.0 0.0 0.0 0.0 0.0 0.2 0.4 0.5 0.0 0.0 0.0 0.0 0.0 0.0 0.0 1.1 1.2 1.4 1.9 1.5 1.1 1.4 2.3 3.5 1.0 1.1 1.6 5.3 7.3 7.5 6.5 6.5 6.6 9.7 5.6 7.2 5.9 6.9
0.1 0.0 0.4 0.3 0.0 0.0 0.0 0.0 0.0 0.0 0.2 0.2 0.3 0.5 0.0 0.0 0.5 1.1 1.7 1.4 0.8 1.0 0.8 1.6 2.2 2.0 2.1 2.9 3.4 4.0 2.4 2.0 11.3 10.6 5.3 4.0 5.2 3.8 4.7 6.7 7.9 10.1 7.2 5.6
0.4 0.5 0.8 1.6 0.0 0.0 0.0 0.0 0.0 0.1 0.5 0.8 0.7 0.6 0.0 0.5 1.9 1.3 2.7 2.6 1.0 0.8 1.2 1.6 2.1 2.0 2.7 2.5 3.1 4.8 4.6 4.7 6.6 6.8 3.5 4.8 7.1 7.9 4.2 3.6 8.1 6.3 3.4 8.2
0.0 0.0 0.1 2.3 0.0 0.0 0.0 0.0 0.0 0.1 0.3 0.4 0.5 0.9 0.9 0.9 1.1 1.4 2.3 1.4 1.9 1.8 1.8 2.1 1.8 2.2 3.2 3.7 4.1 5.7 7.1 6.8 6.7 3.6 5.4 5.7 5.8 4.8 4.0 3.9 3.5 nan nan nan
Water_Equivalent
0.00 0.00 0.00 0.00 0.00 0.00 0.00 0.00 0.00 0.00 0.00 0.00 0.00 0.00 0.00 0.00 0.00 0.00 0.00 0.00 0.00 0.00 0.00 0.00 0.00 0.00 0.00 0.00 0.00 0.00 0.00 0.00 0.00 0.00 0.00 0.00 0.00 0.00 0.00 0.00 0.00 0.00 0.00 0.00
0.00 0.00 0.00 0.00 0.00 0.00 0.00 0.00 0.00 0.00 0.00 0.00 0.00 0.00 0.00 0.00 0.00 0.00 0.00 0.00 0.00 0.00 0.00 0.00 0.00 0.00 0.00 0.00 0.00 0.00 0.00 0.00 0.00 0.00 0.00 0.00 0.00 0.00 0.00 0.00 0.00 0.00 0.00 0.00
0.00 0.00 0.00 0.00 0.00 0.00 0.00 0.00 0.00 0.00 0.00 0.00 0.00 0.00 0.00 0.00 0.00 0.00 0.00 0.00 0.00 0.00 0.00 0.00 0.00 0.00 0.00 0.00 0.00 0.00 0.00 0.00 0.00 0.00 0.00 0.00 0.00 0.00 0.00 0.00 0.00 0.00 0.00 0.00
0.00 0.00 0.00 0.00 0.00 0.00 0.00 0.00 0.00 0.00 0.00 0.00 0.00 0.01 0.00 0.00 0.00 0.00 0.00 0.00 0.00 0.00 0.00 0.00 0.00 0.00 0.00 0.00 0.00 0.00 0.00 0.00 0.00 0.00 0.00 0.00 0.00 0.00 0.00 0.00 0.00 0.00 0.00 0.00
0.00 0.00 0.00 0.00 0.00 0.00 0.00 0.00 0.00 0.00 0.00 0.00 0.00 0.00 0.00 0.00 0.00 0.00 0.00 0.00 0.00 0.00 0.00 0.00 0.00 0.00 0.00 0.00 0.00 0.00 0.00 0.00 0.00 0.00 0.00 0.00 0.00 0.00 0.00 0.00 0.00 0.00 0.00 0.00
0.00 0.00 0.00 0.00 0.00 0.00 0.00 0.00 0.00 0.00 0.00 0.07 0.00 0.00 0.00 0.00 0.00 0.00 0.00 0.00 0.00 0.00 0.00 0.00 0.00 0.00 0.00 0.00 0.00 0.00 0.00 0.00 0.00 0.00 0.00 0.00 0.00 0.00 0.00 0.00 0.00 0.00 0.00 0.00
0.00 0.00 0.00 0.00 0.00 0.00 0.00 0.00 0.08 0.18 0.41 0.26 0.00 0.03 0.00 0.00 0.00 0.00 0.00 0.00 0.00 0.00 0.00 0.00 0.00 0.00 0.00 0.00 0.00 0.00 0.00 0.00 0.00 0.00 0.00 0.00 0.00 0.00 0.00 0.00 0.00 0.00 0.00 0.00
0.00 0.00 0.00 0.00 0.00 0.00 0.00 0.00 0.18 0.46 0.40 0.22 0.09 0.09 0.01 0.00 0.00 0.00 0.00 0.00 0.00 0.00 0.00 0.00 0.00 0.00 0.00 0.00 0.00 0.00 0.00 0.00 0.00 0.00 0.00 0.00 0.00 0.00 0.00 0.00 0.00 0.00 0.00 0.00
0.00 0.00 0.00 0.00 0.00 0.00 0.00 0.00 0.00 0.18 0.62 0.57 0.00 0.00 0.00 0.00 0.00 0.00 0.00 0.00 0.00 0.00 0.00 0.00 0.00 0.00 0.00 0.00 0.00 0.00 0.00 0.00 0.00 0.00 0.00 0.00 0.00 0.00 0.00 0.00 0.00 0.00 0.00 0.00
0.00 0.01 0.00 0.00 0.00 0.00 0.00 0.00 0.08 0.08 0.72 0.53 0.00 0.00 0.00 0.00 0.00 0.00 0.00 0.00 0.00 0.00 0.00 0.00 0.00 0.00 0.00 0.00 0.00 0.00 0.00 0.00 0.00 0.00 0.00 0.00 0.00 0.00 0.00 0.00 0.00 0.00 0.00 0.00
0.00 0.00 0.00 0.00 0.00 0.00 0.00 0.00 0.00 0.00 0.11 0.48 0.39 0.07 0.00 0.00 0.00 0.00 0.00 0.00 0.00 0.00 0.00 0.00 0.00 0.00 0.00 0.00 0.00 0.00 0.00 0.00 0.00 0.00 0.00 0.00 0.00 0.00 0.00 0.00 0.00 0.00 0.00 0.00
0.00 0.00 0.14 0.00 0.00 0.00 0.00 0.00 0.00 0.20 0.16 0.13 0.35 0.13 0.00 0.00 0.00 0.00 0.00 0.00 0.00 0.00 0.00 0.00 0.00 0.00 0.00 0.00 0.00 0.00 0.00 0.00 0.00 0.00 0.00 0.00 0.00 0.00 0.00 0.00 0.00 0.00 0.00 0.00
0.00 0.07 0.36 0.08 0.00 0.00 0.00 0.00 0.00 0.00 0.17 0.27 0.80 0.21 0.00 0.00 0.00 0.00 0.00 0.00 0.00 0.00 0.00 0.00 0.00 0.00 0.00 0.00 0.00 0.00 0.00 0.00 0.00 0.00 0.00 0.00 0.00 0.00 0.00 0.00 0.00 0.00 0.00 0.00
nan 0.01 0.00 0.02 0.00 0.00 0.01 0.00 0.00 0.00 0.39 0.21 0.19 0.02 0.00 0.00 0.00 0.00 0.00 0.00 0.00 0.00 0.00 0.00 0.00 0.00 0.00 0.00 0.00 0.00 0.00 0.00 0.00 0.00 0.00 0.00 0.00 0.00 0.00 0.00 0.02 0.00 0.00 0.00
0.01 0.06 0.00 0.00 0.00 0.00 0.00 0.00 0.00 0.00 0.00 0.02 0.02 0.00 0.00 0.01 0.02 0.01 0.00 0.00 0.00 0.00 0.00 0.00 0.00 0.00 0.00 0.00 0.00 0.00 0.00 0.00 0.00 0.00 0.00 0.00 0.00 0.00 0.03 0.04 0.04 0.04 0.04 0.03
0.02 0.27 0.01 0.21 0.00 0.00 0.00 0.00 0.00 0.00 0.00 0.00 0.00 0.00 0.00 0.00 0.00 0.00 0.00 0.00 0.00 0.00 0.00 0.00 0.00 0.00 0.00 0.00 0.00 0.00 0.00 0.00 0.00 0.00 0.00 0.00 0.06 0.09 0.07 0.09 0.14 0.06 0.04 0.05
0.07 0.08 0.68 0.83 0.02 0.06 0.41 0.08 0.00 0.00 0.00 0.00 0.09 0.00 0.00 0.00 0.00 0.00 0.00 0.00 0.03 0.00 0.00 0.00 0.00 0.00 0.00 0.00 0.00 0.00 0.00 0.04 0.07 0.08 0.15 0.16 0.18 0.23 0.14 0.10 0.13 0.10 0.10 0.10
0.07 0.40 1.04 1.51 1.09 1.88 0.12 0.00 0.00 0.00 0.00 0.00 0.00 0.00 0.00 0.00 0.00 0.00 0.00 0.03 0.00 0.00 0.00 0.00 0.00 0.00 0.00 0.00 0.00 0.00 0.06 0.08 0.11 0.25 0.33 0.22 0.19 0.31 0.08 0.08 0.08 0.11 0.08 0.09
0.02 0.07 0.94 2.57 1.71 0.08 0.00 0.00 0.00 0.00 0.00 0.00 0.00 0.00 0.00 0.00 0.00 0.00 0.00 0.00 0.00 0.00 0.00 0.00 0.00 0.00 0.00 0.00 0.00 0.08 0.08 0.08 0.09 0.10 0.15 0.18 0.25 0.34 0.13 0.37 0.07 0.06 0.23 0.15
0.08 0.05 0.27 2.17 2.09 1.47 0.02 0.00 0.00 0.00 0.02 0.00 0.00 0.00 0.00 0.00 0.36 0.05 0.00 0.00 0.00 0.00 0.00 0.00 0.00 0.00 0.00 0.07 0.07 0.08 0.08 0.09 0.09 0.10 0.09 0.11 0.21 0.45 0.35 0.20 0.30 0.37 0.37 0.35
0.61 1.11 1.22 1.33 2.06 0.56 0.00 0.00 0.00 0.44 0.00 0.00 0.00 0.00 0.00 0.11 0.04 0.00 0.00 0.00 0.00 0.00 0.00 0.00 0.00 0.02 0.08 0.08 0.10 0.08 0.08 0.09 0.10 0.15 0.12 0.14 0.19 0.46 0.29 0.35 0.31 0.43 0.46 0.25
0.16 0.91 2.08 1.52 1.93 2.01 0.00 0.00 0.00 0.00 0.00 0.00 0.01 0.06 0.06 0.00 0.00 0.00 0.00 0.00 0.00 0.00 0.00 0.02 0.11 0.07 0.08 0.12 0.13 0.09 0.08 0.08 0.11 0.14 0.14 0.29 0.49 0.47 0.48 0.84 0.51 0.70 0.63 0.61
0.49 0.05 0.37 0.09 0.18 0.00 0.00 0.00 0.00 0.00 0.00 0.03 0.06 0.06 0.00 0.00 0.00 0.00 0.00 0.00 0.00 0.11 0.12 0.14 0.19 0.15 0.11 0.14 0.20 0.27 0.09 0.10 0.13 0.51 0.72 0.72 0.63 0.64 0.65 1.01 0.59 0.84 0.72 0.86
0.02 0.00 0.06 0.04 0.00 0.00 0.00 0.00 0.00 0.00 0.03 0.03 0.04 0.06 0.00 0.00 0.06 0.12 0.18 0.14 0.08 0.10 0.08 0.16 0.22 0.19 0.19 0.27 0.32 0.35 0.20 0.17 1.12 1.04 0.51 0.39 0.51 0.40 0.50 0.73 0.89 1.22 0.91 0.71
0.08 0.11 0.16 0.25 0.01 0.00 0.00 0.00 0.00 0.01 0.07 0.09 0.09 0.08 0.01 0.06 0.22 0.14 0.28 0.27 0.10 0.08 0.12 0.15 0.20 0.18 0.24 0.20 0.25 0.38 0.34 0.39 0.61 0.65 0.32 0.47 0.71 0.80 0.44 0.38 0.70 0.57 0.35 0.84
0.00 0.00 0.02 0.28 0.00 0.00 0.00 0.00 0.01 0.02 0.04 0.05 0.07 0.11 0.11 0.11 0.13 0.15 0.24 0.15 0.19 0.18 0.17 0.20 0.16 0.17 0.22 0.25 0.28 0.42 0.58 0.58 0.59 0.32 0.52 0.54 0.55 0.48 0.42 0.41 0.36 nan nan nan
SL_Ratio
nan nan nan nan nan nan nan nan nan nan nan nan nan nan nan nan nan nan nan nan nan nan nan nan nan nan nan nan nan nan nan nan nan nan nan nan nan nan nan nan nan nan nan nan
nan nan nan nan nan nan nan nan nan nan nan nan nan nan nan nan nan nan nan nan nan nan nan nan nan nan nan nan nan nan nan nan nan nan nan nan nan nan nan nan nan nan nan nan
nan nan nan nan nan nan nan nan nan nan nan nan nan nan nan nan nan nan nan nan nan nan nan nan nan nan nan nan nan nan nan nan nan nan nan nan nan nan nan nan nan nan nan nan
nan nan nan nan nan nan nan nan nan nan nan nan nan 7.5 nan nan nan nan nan nan nan nan nan nan nan nan nan nan nan nan nan nan nan nan nan nan nan nan nan nan nan nan nan nan
nan nan nan nan nan nan nan nan nan nan nan nan nan nan nan nan nan nan nan nan nan nan nan nan nan nan nan nan nan nan nan nan nan nan nan nan nan nan nan nan nan nan nan nan
nan nan nan nan nan nan nan nan nan nan nan 7.4 nan nan nan nan nan nan nan nan nan nan nan nan nan nan nan nan nan nan nan nan nan nan nan nan nan nan nan nan nan nan nan nan
nan nan nan nan nan nan nan nan 7.0 7.4 7.5 7.3 nan 7.1 nan nan nan nan nan nan nan nan nan nan nan nan nan nan nan nan nan nan nan nan nan nan nan nan nan nan nan nan nan nan
nan nan nan nan nan nan nan nan 7.1 9.4 8.3 7.3 7.6 7.9 6.5 nan nan nan nan nan nan nan nan nan nan nan nan nan nan nan nan nan nan nan nan nan nan nan nan nan nan nan nan nan
6.3 6.3 nan nan nan nan nan nan nan 7.7 9.9 9.1 nan nan nan nan nan nan nan nan nan nan nan nan nan nan nan nan nan nan nan nan nan nan nan nan nan nan nan nan nan nan nan nan
nan 6.8 nan nan nan nan nan nan 7.6 7.5 9.5 9.6 nan nan nan nan nan nan nan nan nan nan nan nan nan nan nan nan nan nan nan nan nan nan nan nan nan nan nan nan nan nan nan nan
nan nan nan nan nan nan nan nan nan nan 7.6 9.2 9.2 7.3 nan nan nan nan nan nan nan nan nan nan nan nan nan nan nan nan nan nan nan nan nan nan nan nan nan nan nan nan nan nan
nan nan 7.0 nan nan nan nan nan nan 8.1 8.9 7.9 9.0 9.3 nan nan nan nan nan nan nan nan nan nan nan nan nan nan nan nan nan nan nan nan nan nan nan nan nan nan nan nan nan nan
nan 6.9 7.7 7.3 5.0 nan 5.7 nan nan nan 7.7 9.3 9.3 9.0 nan nan nan nan nan nan nan nan nan nan nan nan nan nan nan nan nan nan nan nan nan nan nan nan nan nan nan nan nan nan
nan 4.3 5.0 4.9 nan nan 7.2 nan nan nan 8.8 8.8 8.7 8.5 nan nan nan nan nan nan nan nan nan nan nan nan nan nan nan nan nan nan nan nan nan nan nan nan nan 7.5 8.1 nan nan nan
3.9 6.9 nan nan nan nan nan nan nan 7.3 5.0 9.3 6.4 5.0 nan 4.7 5.4 5.6 nan nan nan nan nan nan nan nan nan nan nan nan nan nan nan nan nan nan nan 5.0 8.4 8.2 8.2 8.1 8.0 7.9
5.2 7.7 5.8 8.7 nan nan nan nan nan nan 5.6 nan nan nan nan nan nan nan nan nan nan nan nan nan nan nan nan nan nan nan nan nan 8.0 9.4 11.7 10.6 9.3 9.0 8.9 8.8 8.6 8.5 8.3 8.1
7.2 7.6 9.2 9.5 8.1 8.7 9.8 8.0 nan nan nan nan 8.9 nan nan nan nan nan nan nan 7.1 nan nan nan nan nan nan nan nan nan nan 10.0 10.0 10.1 10.0 9.9 9.6 9.4 9.2 9.0 8.8 8.5 8.2 8.0
6.9 8.5 8.3 9.7 9.4 11.1 6.9 nan nan nan nan nan nan nan nan nan nan nan nan 6.8 nan nan nan nan nan nan nan nan nan nan 10.0 10.1 10.1 10.1 10.0 10.1 10.0 10.1 9.3 9.0 8.9 8.7 8.6 8.5
4.4 6.3 9.6 9.8 9.8 6.8 5.4 nan nan nan nan nan nan nan nan nan nan nan nan nan nan nan nan nan nan nan nan 10.0 12.5 10.3 10.4 10.2 10.3 10.2 10.4 10.1 10.3 10.6 10.1 9.8 9.8 10.0 9.2 8.5
5.9 5.2 5.8 9.7 10.2 10.3 5.2 nan nan nan 9.4 nan nan nan nan nan 8.7 6.5 nan nan nan nan nan nan nan nan 11.3 10.3 10.4 10.5 10.6 10.6 11.0 11.1 11.3 11.1 11.2 10.8 10.8 9.9 9.9 9.3 8.9 9.0
9.9 9.6 10.0 9.4 9.8 9.0 5.0 nan nan 9.9 nan nan nan nan nan 7.7 6.4 nan nan nan nan nan nan nan nan 10.1 10.5 10.9 11.0 10.7 10.5 11.2 11.2 11.4 11.8 11.6 11.2 10.8 11.0 10.4 9.4 9.7 9.1 8.8
10.7 10.4 9.8 9.8 10.2 10.1 2.8 nan nan nan nan nan 6.6 6.9 7.9 nan nan nan nan nan nan nan nan 10.1 10.3 10.2 10.5 10.5 12.0 11.3 10.7 10.8 11.5 11.7 12.4 11.0 10.6 10.8 10.2 9.6 9.1 8.8 8.8 8.6
10.0 8.6 8.4 7.3 8.7 nan nan nan nan nan nan 6.4 7.0 7.6 nan nan nan nan nan nan nan 10.0 10.0 10.1 10.3 10.2 10.3 10.3 11.5 12.9 11.4 11.7 11.8 10.4 10.2 10.4 10.2 10.2 10.1 9.6 9.4 8.5 8.2 8.0
6.2 nan 6.4 7.5 nan nan nan nan 5.0 nan 6.3 6.6 7.3 7.8 5.5 5.0 8.6 9.2 9.4 10.0 10.1 10.0 10.1 10.2 10.3 10.7 11.4 11.0 10.9 11.5 12.1 11.8 10.1 10.2 10.4 10.4 10.3 9.5 9.4 9.2 8.9 8.3 8.0 7.8
5.2 4.7 5.1 6.5 4.5 nan 5.0 nan nan 4.7 7.5 8.3 7.9 8.2 5.3 8.0 8.9 9.0 9.5 9.8 10.0 10.0 10.0 10.2 10.5 10.7 11.5 12.4 12.8 12.7 13.3 12.1 10.7 10.5 10.7 10.2 10.0 9.8 9.4 9.5 11.6 10.9 9.7 9.9
5.0 5.0 6.8 8.1 nan nan 2.5 nan 4.1 4.7 7.1 7.4 7.6 8.4 8.6 8.2 8.5 9.2 9.5 9.7 10.0 10.1 10.5 10.6 11.2 12.7 14.6 14.6 14.5 13.7 12.3 11.8 11.5 11.0 10.4 10.5 10.5 10.0 9.6 9.6 9.6 nan nan nan